Find SPOT 5

NORAD ID: 27421 Int'l Des: 2002-021 Owner: CNES Country: F operational
LEORETROGRADESSO

Current View

Loading 3D Globe...

About SPOT 5

Description loading...

Upcoming Passes

Passes for default location (London). Set your location on the main map for personalized predictions.

Altitude History

Loading altitude history...

Two-Line Element Set

1 27421U 02021A 26150.08188380 .00000424 00000-0 99132-4 0 9999
2 27421 97.9857 189.7455 0128928 333.3353 26.1252 14.54737262260215
Epoch: May 30, 2026 • Age: 7 hours

Current Status

Altitude 664.1 km
Velocity 7.55 km/s
Sub-Earth Point 29.77°N, 167.02°E
Launch Date May 4, 2002
Age 24 years
Type earth observation

Technical Details

Classification Payload
Mass 3000.00 kg
Dry Mass 2850.00 kg
Total Mass 3000.00 kg
Length 5.70 m
Diameter 3.10 m
Span 10.00 m
Shape Box + Pan
Manufacturer ASTT
Bus Type SPOT
Phase Status In Orbit
Owner/State CNES/F

Most Searched